Погода в Леже

Албания     41°46′49″N   19°38′37″E
темп.,
°C
ветер,
м/с
пор.,
м/с
влажн.,
%
обл.,
%
осадки,
мм/ч
давл.,
гПа
погр.,
м
27 сентября, пн
пн2723:00+17в22590 0.0 101918
02:00+17всв11545 0.0 101817
05:00+16в115042 0.0 101818
08:00+19в12436 0.0 101865
11:00+27з11250 0.0 1017553
14:00+25юз113455 0.2 1018548
17:00+23ссв0149100 0.4 101619
20:00+21ююв2251100 0.4 101622
28 сентября, вт
вт2823:00+19всв21675 0.4 101722
02:00+18всв11695 0.4 101616
05:00+17всв216695 0.0 101618
08:00+20всв1258100 0.0 101567
11:00+26с1239100 0.0 1016929
14:00+28зсз223671 0.0 10141479
17:00+25з23526 0.0 1014543
20:00+20всв227018 0.0 101627
29 сентября, ср
ср2923:00+18всв33764 0.1 101758
02:00+17всв33791 0.1 101764
05:00+16всв33804 0.0 101757
08:00+19всв23704 0.0 1017156
11:00+26св124355 0.0 1017996
14:00+27з2141100 0.0 10161501
17:00+24зюз225097 0.0 1016408
20:00+19всв1172100 0.4 101818
30 сентября, чт
чт3023:00+18всв2276100 0.2 101820
02:00+17всв228057 0.6 101930
05:00+15всв22879 0.9 101936
08:00+17всв23805 1.4 1020114
11:00+23всв125339 0.4 1020859
14:00+26ссз1243100 0.6 10181673
17:00+22ссв2458100 0.4 1018513
20:00+17всв2386100 2.3 102067
1 октября, пт
пт123:00+17всв3380100 0.9 102070
02:00+16всв2276100 0.9 102056
05:00+16всв2271100 0.0 101955
08:00+16св2266100 0.1 102088
11:00+17св3658100 0.1 1020546
14:00+14ссв3482100 1.9 1020230
17:00+14св2388100 4.0 1020172
20:00+14св2386100 4.3 102098